Regional Weather Roundup
Issued by NWS

Home | Current Version | Previous Version | Graphics & Text | Print | Product List | Glossary On
Versions: 1 2 3 4 5 6 7 8 9 10 11 12 13 14 15 16 17 18 19 20 21 22 23 24 25 26 27 28 29 30 31 32 33 34 35 36 37 38 39 40 41 42 43 44 45 46 47 48 49 50
000
ASUS45 KTFX 211404
RWRMT
MONTANA HOURLY WEATHER ROUNDUP
NATIONAL WEATHER SERVICE GREAT FALLS MT
804 AM MDT THU AUG 21 2014

NOTE: "FAIR" INDICATES FEW OR NO CLOUDS BELOW 12000 FEET WITH NO
SIGNIFICANT WEATHER AND/OR OBSTRUCTIONS TO VISIBILITY.

* THESE STATIONS ARE NOT UNDER NWS QUALITY CONTROL. THEY DO NOT
   REPORT WEATHER SUCH AS PRECIPITATION OR FOG.

MTZ001>007-043-211500-
WEST OF THE DIVIDE
CITY           SKY/WX    TMP DP  RH WIND       PRES   REMARKS
KALISPELL      CLOUDY    55  50  83 N10       30.02R
MISSOULA       PTSUNNY   54  50  86 CALM      30.03R
BUTTE          LGT RAIN  50  46  86 CALM      30.10R
MULLAN PASS    SUNNY     50  46  86 VRB5      30.08R
* ESSEX        N/A       51  48  90 SE3        N/A
* LINCOLN      N/A       48  47  96 E2G7       N/A
* LOOKOUT PASS N/A       48  46  93 S1         N/A
* POLSON       N/A       51  51 100 N/A        N/A
* RONAN APT    PTCLDY    55  54  96 N/A        N/A
* SEELEY LAKE  N/A       47  46  96 N4         N/A
* THOMP F APT  SUNNY     49  47  93 SE4        N/A
* YAAK HILL    N/A       53  51  93 N/A        N/A
$$

MTZ008-052>055-211500-
SOUTHWEST MONTANA
CITY           SKY/WX    TMP DP  RH WIND       PRES   REMARKS
BOZEMAN        CLOUDY    55  52  90 SW7       30.06R
DILLON         LGT RAIN  52  50  93 SW3       30.08R
W YELLOWSTONE  CLOUDY    46  46 100 CALM      30.15R
* THREE FORKS  CLOUDY    55  55 100 N/A        N/A
* BOULDER HILL N/A       48  45  89 NE4        N/A
* MONIDA PASS  N/A       48  48 100 SE7        N/A
* RAYNOLDS PAS N/A       49  30  48 SE11       N/A
* WHITEHALL    N/A       55  50  83 S2G7       N/A
* WISE RIVER   N/A       48  47  96 E2         N/A
$$

MTZ009>010-012-014-046-048-049-054-211500-
EAST SLOPES AND CENTRAL MONTANA
CITY           SKY/WX    TMP DP  RH WIND       PRES   REMARKS
CUT BANK       CLOUDY    52  48  86 N9        30.09R
GREAT FALLS    CLOUDY    54  54 100 NW10      30.07R
HELENA         CLOUDY    55  48  77 W7        30.07R
MALMSTROM AFB  PTSUNNY   55  54  96 NW7       30.08R
* CONRAD       PTSUNNY   54  52  93 NW9        N/A
* DEARBORN     N/A       56  52  87 SW2        N/A
* EAST GLACIER N/A       46  46 100 SW1        N/A
* MONARCH      N/A       49  46  89 W4         N/A
* PENDROY      N/A       49  48  96 N12        N/A
* ROGERS PASS  N/A       48  47  96 SW1        N/A
* SAINT MARY   N/A       47  47 100 SE2        N/A
* SWEET GRASS  N/A       51  51 100 N12        N/A
$$

MTZ011-013-016-021-035-040-045-047-050-051-211500-
NORTH CENTRAL MONTANA
CITY           SKY/WX    TMP DP  RH WIND       PRES   REMARKS
HAVRE          CLOUDY    61  57  87 NW5       30.00S
LEWISTOWN      CLOUDY    55  54  96 NW6       30.06R
* CHESTER      N/A       54  51  90 NE5G10     N/A
* DENTON       N/A       56  55  96 NW4        N/A
* GEYSER       N/A       53  52  96 W12        N/A
* JUDITH GAP   N/A       52  52 100 N11        N/A
* LOMA         N/A       58  56  93 W4         N/A
$$

MTZ017>020-022>027-061-062-211500-
NORTHEAST MONTANA
CITY           SKY/WX    TMP DP  RH WIND       PRES   REMARKS
GLASGOW        CLOUDY    63  61  93 NW3       29.94R
GLENDIVE       PTSUNNY   63  57  81 NW6       29.96R
JORDAN         CLOUDY    63  57  81 NW6       29.96R
SIDNEY         PTCLDY    63  61  93 CALM      29.93R
WOLF POINT     CLOUDY    64  57  78 CALM      29.93R
* BEAVER HILL  N/A       60  60 100 N4         N/A
* CIRCLE       N/A       61  60  97 N/A        N/A
* LINDSAY DVD  N/A       59  57  93 NW8        N/A
* SACO         N/A       60  59  97 W5         N/A
$$

MTZ028>042-056>058-211500-
SOUTHCENTRAL AND SOUTHEAST MONTANA
CITY           SKY/WX    TMP DP  RH WIND       PRES   REMARKS
BAKER          PTCLDY    61  57  87 W10       29.96R
BILLINGS       PTSUNNY   61  55  81 NW6       30.03R
LIVINGSTON     CLOUDY    57  50  78 NW6       30.05R
MILES CITY     CLOUDY    64  55  73 CALM      29.95R
* LAUREL APT   PTSUNNY   57  54  90 N/A        N/A
* ROUNDUP APT  CLOUDY    59  52  78 N/A        N/A
* ALZADA       N/A       64  54  70 W2         N/A
* HYSHAM       N/A       59  56  90 NW3G8      N/A
* LAME DEER    N/A       58  52  81 VRB5       N/A
* REED POINT   N/A       61  53  75 N/A        N/A
* ROSCOE HILL  N/A       55  48  77 SW2        N/A
$$

REGIONAL REPORTS...DAKOTAS
CITY           SKY/WX    TMP DP  RH WIND       PRES   REMARKS
WILLISTON      SUNNY     61  59  93 CALM      29.90R
DICKINSON      SUNNY     63  61  93 NW8       29.89R
BEACH          FOG       61  61 100 N7        29.94S VSB 2 1/2
CROSBY         FOG       59  59 100 N10       29.91R VSB M1/4
TIOGA          FOG       61  61 100 NW10      29.92R VSB M1/4
WATFORD CITY   PTCLDY    63  63 100 NW6       29.88R
BISMARCK       CLOUDY    66  64  93 NW9       29.83R
GRAND FORKS    CLOUDY    70  66  87 E7        29.76F
FARGO          CLOUDY    73  66  79 SE5       29.75R
BUFFALO SD     SUNNY     64  55  73 NW16      29.88R
RAPID CITY     PTSUNNY   68  61  78 CALM      29.95R
$$

REGIONAL REPORTS...WYOMING/IDAHO/WASHINGTON
CITY           SKY/WX    TMP DP  RH WIND       PRES   REMARKS
GILLETTE       SUNNY     63  55  75 NW3       30.03R
SHERIDAN       PTCLDY    63  48  58 NW8       30.02R
CODY           CLOUDY    57  48  72 NE5       30.07S
YELLOWSTONE LA CLOUDY    46  45  96 CALM      30.22R
SALMON         PTCLDY    52  50  93 CALM      30.06R
MULLAN PASS    SUNNY     50  46  86 VRB5      30.08S
SAND POINT     SUNNY     52  52 100 CALM      30.00S
SPOKANE        PTCLDY    57  54  90 E6        29.98R
$$

REGIONAL REPORTS...SASKATCHEWAN
CITY           SKY/WX    TMP DP  RH WIND       PRES   REMARKS
SWIFT CURRENT  LGT RAIN  57  57 100 N10       30.01R

$$




USA.gov is the U.S. government's official web portal to all federal, state and local government web resources and services.